[[{"header":{"parameterUnit":"m.s-1","parameterCategory":1,"la1":30.2991,"la2":30.254,"lo1":-89.0895,"lo2":-89.0444,"dy":0.0017,"dx":0.0017,"nx":28,"ny":28,"refTime":"2024-06-12T03:00:00:Z","depth":0,"parameterNumber":2,"parameterNumberName":"U-component_of_WINDS"},"data":[0,0,0,0,0,0,0,0,0,0,0,0,0,0,0,0,0,0,0,0,0,0,0,0,0,0,0,0,0,0,0,0,0,0,0,0,0,0,0,0,0,0,0,0,0,0,0,0,0,0,0,0,0,0,0,0,0,0,0.3808,0.381,0,0.3948,0.395,0.3952,0.3949,0.3947,0.3945,0.3943,0.4091,0.4097,0.4102,0,0,0,0,0,0,0,0,0,0,0,0,0,0.3542,0.3547,0.3808,0.381,0.3812,0.3948,0.395,0.3952,0.3949,0.3947,0.3944,0.3942,0.4089,0.4096,0.4103,0,0,0,0,0,0,0,0,0,0,0,0,0,0.3668,0.3548,0.3808,0.3826,0.3829,0.3948,0.395,0.3953,0.3949,0.3946,0.3944,0.3941,0.4087,0.4095,0.4104,0.4214,0,0,0.413,0.4134,0,0,0,0,0,0,0,0,0.366,0.3677,0.3822,0.3825,0.3829,0.3928,0.3911,0.404,0.395,0.3904,0.3943,0.394,0.4039,0.4052,0.4084,0.4221,0.4227,0.4131,0.4136,0.414,0.4142,0,0,0,0,0,0,0,0.3652,0.3671,0.3864,0.3824,0.3828,0.3829,0.3844,0.3935,0.3986,0.3908,0.3908,0.3924,0.4041,0.4076,0.4088,0.423,0.413,0.4138,0.4143,0.4147,0.4464,0.4468,0,0,0,0,0,0,0.3638,0.3664,0.3859,0.3868,0.3736,0.3836,0.3853,0.3899,0.3985,0.3995,0.3927,0.3924,0.4063,0.4078,0.4093,0.4228,0.414,0.4148,0.4153,0.4461,0.4465,0.4469,0,0,0,0,0,0,0.3633,0.3656,0.3854,0.3766,0.3791,0.3844,0.3896,0.3903,0.3939,0.3999,0.4009,0.3953,0.4061,0.4081,0.4184,0.4233,0.4151,0.4159,0.4457,0.4462,0.4467,0.4499,0,0,0,0,0,0,0.3625,0.3654,0.3695,0.3767,0.3796,0.3941,0.3899,0.3908,0.3953,0.395,0.4027,0.4037,0.4061,0.4171,0.4192,0.4244,0.4166,0.4453,0.446,0.4465,0.4494,0.4504,0.4513,0,0,0,0,0,0.3616,0.37,0.3697,0.3721,0.3849,0.3944,0.396,0.3985,0.3957,0.4,0.4039,0.4034,0.4224,0.4182,0.4206,0.426,0.445,0.4458,0.4465,0.4489,0.4502,0.4513,0,0,0,0,0,0,0.3634,0.3709,0.3708,0.3817,0.3874,0.3943,0.3997,0.3998,0.4065,0.406,0.4089,0.4106,0.4209,0.4245,0.4196,0.4372,0.4334,0.4346,0.4344,0.4357,0.4367,0.4356,0.4173,0,0,0,0,0,0.365,0.372,0.3783,0.3873,0.3902,0.3945,0.3987,0.4001,0.4061,0.4086,0.4132,0.4192,0.4266,0.4313,0.4384,0.4499,0.4516,0.4548,0.4558,0.4566,0.4577,0.464,0.4655,0.4493,0.4493,0.4493,0,0,0.3686,0.3736,0.3778,0.3878,0.3924,0.3996,0.3965,0.4043,0.4097,0.4098,0.4197,0.4234,0.4303,0.4412,0.4463,0.4445,0.4625,0.4575,0.4581,0.4588,0.4649,0.4665,0.4678,0.4498,0.4497,0.4496,0,0,0.3787,0.3832,0.3912,0.3958,0.4027,0.4055,0.4074,0.4143,0.4167,0.4267,0.4269,0.4335,0.446,0.4509,0.4551,0.4671,0.4669,0.4693,0.4745,0.4806,0.4819,0.4831,0.4874,0.4889,0.4704,0.4704,0.4704,0,0.3823,0.3931,0.3954,0.4032,0.4076,0.4079,0.4161,0.4205,0.4294,0.4325,0.4304,0.4462,0.4508,0.4629,0.4658,0.4692,0.4715,0.4685,0.4815,0.4827,0.4838,0.4879,0.4895,0.4706,0.4706,0.4706,0.4705,0,0.3971,0.4046,0.4103,0.4187,0.4238,0.4318,0.4354,0.4403,0.4413,0.4443,0.4546,0.4602,0.4684,0.4714,0.4724,0.4836,0.4823,0.4809,0.4771,0.4856,0.4895,0.4911,0.471,0.4709,0.4708,0.4707,0,0,0.4088,0.4183,0.4204,0.4242,0.4318,0.4377,0.4458,0.4537,0.4578,0.464,0.4709,0.4815,0.4801,0.4849,0.4865,0.4919,0.5011,0.4898,0.49,0.4917,0.5137,0.5148,0.5165,0.501,0.5013,0.5015,0.5131,0,0.4197,0.4338,0.4361,0.4486,0.4556,0.4559,0.4629,0.4684,0.4715,0.478,0.4815,0.489,0.4866,0.4895,0.4948,0.4988,0.5055,0.498,0.5075,0.5078,0.5057,0.5186,0.5197,0.5304,0.5147,0.515,0.5152,0,0.4343,0.4407,0.4538,0.4604,0.4635,0.4697,0.4771,0.4833,0.4896,0.4915,0.4967,0.4977,0.5062,0.5021,0.5139,0.5087,0.5127,0.5153,0.5157,0.5167,0.512,0.5199,0.5339,0.5355,0.5176,0.5174,0.5172,0,0.4415,0.4534,0.4628,0.466,0.474,0.4784,0.482,0.488,0.4926,0.4991,0.5022,0.5097,0.5138,0.5196,0.5227,0.5194,0.5342,0.5304,0.5361,0.536,0.5392,0.539,0.554,0.5419,0.5418,0.5418,0.5418,0,0.4535,0.4615,0.4661,0.4718,0.4808,0.4835,0.4924,0.4959,0.5012,0.5077,0.5086,0.5147,0.5184,0.5251,0.5275,0.5369,0.5388,0.5406,0.5412,0.5405,0.5403,0.5432,0.5425,0.5422,0.5421,0.542,0.542,0,0.463,0.4664,0.4766,0.4833,0.4852,0.4916,0.4974,0.503,0.5061,0.5144,0.5165,0.5213,0.5293,0.5329,0.5427,0.5444,0.5551,0.5551,0.5529,0.5531,0.5586,0.558,0.576,0.5785,0.5647,0.5649,0.565,0,0.4704,0.4765,0.4838,0.4882,0.4918,0.4989,0.5035,0.5064,0.5113,0.5189,0.5237,0.5316,0.5381,0.5508,0.5553,0.5628,0.5631,0.5689,0.5642,0.5634,0.5631,0.5627,0.5633,0.5697,0.5698,0.5699,0.57,0,0.4831,0.4845,0.491,0.4983,0.5038,0.5096,0.5154,0.519,0.5228,0.5282,0.5362,0.5413,0.5513,0.5592,0.567,0.5708,0.5711,0.5714,0.5732,0.5726,0.571,0.5719,0.5552,0.571,0.5709,0.5708,0.5708,0.5707,0.4918,0.4972,0.5032,0.5106,0.5152,0.5205,0.5261,0.5299,0.5366,0.5448,0.5462,0.5548,0.561,0.5715,0.5756,0.5824,0.5811,0.5836,0.5842,0.5848,0.5851,0.5699,0.5839,0.5839,0.5839,0.5838,0.5838,0,0.5045,0.5083,0.5151,0.523,0.5288,0.5285,0.5348,0.5397,0.5472,0.5529,0.5592,0.5685,0.5762,0.5812,0.589,0.5935,0.5938,0.5955,0.5951,0.596,0.5859,0.5836,0.5951,0.5951,0.5951,0.595,0.595,0.595,0.5118,0.521,0.5231,0.5346,0.5385,0.5468,0.5505,0.5554,0.56,0.5702,0.5765,0.5798,0.5852,0.5934,0.6004,0.6018,0.6046,0.6062,0.6075,0.5979,0.5967,0.5956,0.5935,0.6068,0.6069,0.6171,0.6172,0.6172]},{"header":{"parameterUnit":"m.s-1","parameterCategory":1,"la1":30.2991,"la2":30.254,"lo1":-89.0895,"lo2":-89.0444,"dy":0.0017,"dx":0.0017,"nx":28,"ny":28,"refTime":"2024-06-12T03:00:00:Z","depth":0,"parameterNumber":3,"parameterNumberName":"V-component_of_WINDS"},"data":[0,0,0,0,0,0,0,0,0,0,0,0,0,0,0,0,0,0,0,0,0,0,0,0,0,0,0,0,0,0,0,0,0,0,0,0,0,0,0,0,0,0,0,0,0,0,0,0,0,0,0,0,0,0,0,0,0,0,1.0125,1.0125,0,1.0152,1.0152,1.0153,1.0117,1.0115,1.0114,1.0113,1.014,1.0142,1.0143,0,0,0,0,0,0,0,0,0,0,0,0,0,1.0037,1.0039,1.0125,1.0125,1.0126,1.0152,1.0152,1.0153,1.0117,1.0115,1.0114,1.0112,1.0139,1.0141,1.0144,0,0,0,0,0,0,0,0,0,0,0,0,0,1.0071,1.004,1.0125,1.0111,1.011,1.0152,1.0152,1.0153,1.0117,1.0115,1.0113,1.0112,1.0138,1.0141,1.0144,1.0201,0,0,1.0153,1.0154,0,0,0,0,0,0,0,0,1.0069,1.0074,1.0113,1.0112,1.0111,1.0129,1.0131,1.0169,1.0118,1.0114,1.0113,1.0111,1.0138,1.014,1.015,1.0202,1.0203,1.0153,1.0155,1.0156,1.0157,0,0,0,0,0,0,0,1.0067,1.0073,1.0136,1.0113,1.0112,1.0102,1.0104,1.0138,1.0137,1.0115,1.0112,1.0116,1.0137,1.0147,1.015,1.0203,1.0153,1.0156,1.0157,1.0158,1.0296,1.0298,0,0,0,0,0,0,1.0066,1.0071,1.0135,1.0136,1.0085,1.0105,1.0108,1.0125,1.0136,1.0136,1.0117,1.0114,1.0143,1.0147,1.0151,1.0213,1.0156,1.0159,1.016,1.0295,1.0297,1.0299,0,0,0,0,0,0,1.0065,1.0073,1.0134,1.0103,1.011,1.0108,1.0128,1.0127,1.0137,1.0138,1.0138,1.0129,1.0142,1.0147,1.0187,1.0214,1.016,1.0163,1.0292,1.0295,1.0298,1.0342,0,0,0,0,0,0,1.0062,1.0072,1.0095,1.0104,1.0112,1.0171,1.013,1.0129,1.0142,1.0138,1.0149,1.0148,1.0141,1.0183,1.019,1.0217,1.0165,1.029,1.0294,1.0297,1.0338,1.0346,1.0353,0,0,0,0,0,1.0059,1.0108,1.0097,1.0104,1.0141,1.0173,1.0177,1.0168,1.0145,1.0166,1.0166,1.0148,1.021,1.0187,1.0195,1.0223,1.0288,1.0293,1.0297,1.0335,1.0344,1.0353,0,0,0,0,0,0,1.0104,1.0109,1.0097,1.0149,1.0161,1.0167,1.0194,1.0179,1.0197,1.0193,1.0179,1.0182,1.0224,1.0228,1.0202,1.0275,1.0245,1.0251,1.0271,1.0281,1.0288,1.0285,1.0167,0,0,0,0,0,1.0119,1.0146,1.0149,1.0195,1.0201,1.0197,1.021,1.0201,1.0213,1.0217,1.0221,1.0231,1.0252,1.0267,1.0287,1.0339,1.0338,1.0361,1.0369,1.0375,1.038,1.0401,1.041,1.0313,1.0313,1.0313,0,0,1.0153,1.0159,1.0177,1.0204,1.0212,1.0237,1.0201,1.0231,1.0249,1.0222,1.0259,1.0261,1.0272,1.0316,1.0336,1.0321,1.0406,1.038,1.0385,1.0387,1.0407,1.0416,1.0424,1.0316,1.0316,1.0315,0,0,1.0225,1.0234,1.0271,1.0278,1.029,1.0286,1.0294,1.0302,1.0301,1.0338,1.0317,1.0337,1.0376,1.0383,1.0391,1.046,1.0442,1.0467,1.0505,1.0527,1.0534,1.0541,1.0561,1.0569,1.0472,1.0473,1.0473,0,1.0265,1.0303,1.0292,1.0321,1.0332,1.0307,1.0342,1.035,1.0368,1.0375,1.0357,1.0401,1.0407,1.045,1.0466,1.0476,1.0482,1.0466,1.0534,1.0541,1.0547,1.0566,1.0574,1.0475,1.0475,1.0475,1.0474,0,1.0349,1.0376,1.0404,1.0419,1.0433,1.0466,1.0456,1.0472,1.046,1.0457,1.0492,1.0498,1.0516,1.0526,1.0517,1.0566,1.0555,1.0537,1.0505,1.0559,1.0576,1.0584,1.0479,1.0478,1.0477,1.0477,0,0,1.0453,1.0457,1.0468,1.0472,1.048,1.05,1.0529,1.0546,1.0557,1.0569,1.0591,1.0621,1.0602,1.0612,1.0602,1.0622,1.067,1.06,1.0599,1.0609,1.0719,1.0731,1.074,1.0658,1.066,1.0661,1.0717,0,1.0521,1.0572,1.056,1.0609,1.063,1.0605,1.063,1.0636,1.0633,1.0649,1.0645,1.0665,1.0641,1.0646,1.0664,1.066,1.0691,1.0656,1.0675,1.0676,1.0671,1.075,1.0764,1.0817,1.0724,1.0725,1.0726,0,1.061,1.0622,1.0673,1.0672,1.0681,1.0704,1.0715,1.0732,1.0737,1.0733,1.0741,1.0726,1.0752,1.0721,1.0754,1.073,1.0737,1.0736,1.0738,1.0737,1.0703,1.0749,1.0834,1.0841,1.0738,1.0737,1.0736,0,1.0674,1.0704,1.0737,1.0742,1.0744,1.0759,1.076,1.0764,1.0773,1.0783,1.0787,1.0801,1.0807,1.0817,1.0804,1.0784,1.0837,1.0807,1.0831,1.0832,1.0843,1.0842,1.0927,1.0852,1.0852,1.0852,1.0852,0,1.0751,1.0783,1.0765,1.0785,1.0818,1.0802,1.0834,1.0833,1.0834,1.0851,1.0831,1.0847,1.0831,1.0845,1.0836,1.0861,1.0866,1.0861,1.0857,1.0861,1.0861,1.0864,1.0859,1.0854,1.0853,1.0853,1.0853,0,1.0829,1.082,1.0853,1.085,1.085,1.0873,1.087,1.0887,1.0881,1.0902,1.0906,1.0896,1.0911,1.09,1.0915,1.0908,1.0941,1.0934,1.0939,1.0936,1.096,1.0956,1.1048,1.1057,1.0979,1.098,1.098,0,1.0878,1.0901,1.0899,1.0908,1.091,1.0927,1.0935,1.0919,1.0928,1.0932,1.0948,1.096,1.097,1.0994,1.0987,1.0997,1.0988,1.1019,1.0989,1.0991,1.0984,1.0981,1.0981,1.1025,1.1026,1.1026,1.1027,0,1.0964,1.0956,1.0969,1.0978,1.0988,1.0995,1.1001,1.1009,1.0993,1.1004,1.1018,1.1024,1.1038,1.1049,1.1056,1.1055,1.1037,1.1036,1.1042,1.1045,1.1045,1.1041,1.0952,1.1034,1.1033,1.1033,1.1033,1.1032,1.1026,1.1042,1.1042,1.1055,1.1057,1.1061,1.1075,1.1069,1.1081,1.109,1.108,1.1096,1.1095,1.1102,1.1103,1.1113,1.11,1.111,1.1111,1.1113,1.1115,1.1045,1.1115,1.1115,1.1115,1.1115,1.1114,0,1.1107,1.1104,1.1117,1.1123,1.1132,1.1114,1.1117,1.1126,1.114,1.1141,1.1149,1.1163,1.1173,1.1165,1.1172,1.1182,1.1173,1.1184,1.1182,1.1181,1.1128,1.1121,1.119,1.119,1.119,1.119,1.119,1.119,1.115,1.1175,1.1167,1.1192,1.1189,1.1204,1.1207,1.1209,1.1209,1.1225,1.1232,1.1227,1.1223,1.1229,1.1236,1.1233,1.1236,1.1249,1.1243,1.1193,1.1185,1.1178,1.1171,1.125,1.125,1.1294,1.1294,1.1295]}]]